TimeEET,TemperatureF,Dew PointF,Humidity,Sea Level PressureIn,VisibilityMPH,Wind Direction,Wind SpeedMPH,Gust SpeedMPH,PrecipitationIn,Events,Conditions,WindDirDegrees,DateUTC
12:00 AM,69.8,64.4,83,29.89,-9999.0,NW,11.5,-,N/A,,Clear,320,2013-05-20 22:00:00
1:00 AM,68.0,64.4,88,29.89,-9999.0,NNW,11.5,-,N/A,,Clear,340,2013-05-20 23:00:00
2:00 AM,69.8,64.4,83,29.89,-9999.0,NNW,11.5,-,N/A,,Clear,330,2013-05-21 00:00:00
3:00 AM,69.8,64.4,83,29.89,-9999.0,NW,9.2,-,N/A,,Clear,310,2013-05-21 01:00:00
4:00 AM,68.0,64.4,88,29.89,-9999.0,West,6.9,-,N/A,,Clear,280,2013-05-21 02:00:00
5:00 AM,66.2,62.6,88,29.89,-9999.0,West,5.8,-,N/A,,Clear,270,2013-05-21 03:00:00
6:00 AM,66.2,64.4,94,29.89,-9999.0,WNW,6.9,-,N/A,,Clear,290,2013-05-21 04:00:00
7:00 AM,71.6,66.2,83,29.89,-9999.0,West,11.5,-,N/A,,Clear,280,2013-05-21 05:00:00
8:00 AM,73.4,68.0,83,29.92,-9999.0,WNW,12.7,-,N/A,,Clear,300,2013-05-21 06:00:00
9:00 AM,77.0,66.2,69,29.92,-9999.0,NW,12.7,-,N/A,,Clear,310,2013-05-21 07:00:00
10:00 AM,80.6,66.2,61,29.92,-9999.0,WNW,16.1,-,N/A,,Clear,300,2013-05-21 08:00:00
11:00 AM,80.6,66.2,61,29.92,-9999.0,NW,18.4,-,N/A,,Clear,310,2013-05-21 09:00:00
12:00 PM,80.6,66.2,61,29.92,-9999.0,NW,18.4,-,N/A,,Clear,310,2013-05-21 10:00:00
1:00 PM,82.4,66.2,58,29.89,-9999.0,NNW,11.5,-,N/A,,Clear,330,2013-05-21 11:00:00
2:00 PM,80.6,64.4,58,29.89,-9999.0,NNW,18.4,-,N/A,,Clear,330,2013-05-21 12:00:00
3:00 PM,77.0,66.2,69,29.89,-9999.0,NW,17.3,-,N/A,,Clear,310,2013-05-21 13:00:00
4:00 PM,78.8,66.2,65,29.89,-9999.0,NNW,16.1,-,N/A,,Clear,330,2013-05-21 14:00:00
5:00 PM,78.8,66.2,65,29.86,-9999.0,NNW,15.0,-,N/A,,Clear,340,2013-05-21 15:00:00
6:00 PM,75.2,68.0,78,29.89,-9999.0,NW,15.0,-,N/A,,Clear,320,2013-05-21 16:00:00
7:00 PM,73.4,68.0,83,29.89,-9999.0,NNW,12.7,-,N/A,,Clear,330,2013-05-21 17:00:00
8:00 PM,71.6,68.0,88,29.89,-9999.0,NNW,10.4,-,N/A,,Clear,340,2013-05-21 18:00:00
9:00 PM,87.8,68.0,52,29.92,-9999.0,NW,9.2,-,N/A,,Clear,320,2013-05-21 19:00:00
10:00 PM,69.8,68.0,94,29.92,-9999.0,NW,9.2,-,N/A,,Clear,320,2013-05-21 20:00:00
11:00 PM,69.8,68.0,94,29.95,-9999.0,NW,8.1,-,N/A,,Clear,320,2013-05-21 21:00:00